Printer-friendly version

IAU Minor Planet Center

Minor Planet Center

MPEC 2004-D41 : S/2003 S 1

The following Minor Planet Electronic Circular may be linked-to from your own Web pages, but must not otherwise be redistributed electronically.


Read MPEC 2004-D40 Read MPEC 2004-D42


M.P.E.C. 2004-D41                                Issued 2004 Feb. 26, 18:06 UT

     The Minor Planet Electronic Circulars contain information on unusual
         minor planets and routine data on comets.  They are published
   on behalf of Commission 20 of the International Astronomical Union by the
          Minor Planet Center, Smithsonian Astrophysical Observatory,
                          Cambridge, MA 02138, U.S.A.

         Supported in part by the Steven and Michele Kirsch Foundation
             Prepared using the Tamkin Foundation Computer Network

                              MPC@CFA.HARVARD.EDU
          URL http://cfa-www.harvard.edu/iau/mpc.html  ISSN 1523-6714

                                  S/2003 S 1

                           Revision to MPEC 2003-G39

Additional Observations:
    SK03S010  C2004 01 24.12121 06 35 23.99 +23 08 27.3                 ED041675
    SK03S010  C2004 01 24.19446 06 35 22.53 +23 08 28.6                 ED041675
    SK03S010  C2004 01 24.19865 06 35 22.46 +23 08 29.0                 ED041675
    SK03S010  C2004 01 24.20281 06 35 22.38 +23 08 29.4                 ED041675
    SK03S010  C2004 01 24.20696 06 35 22.29 +23 08 29.1                 ED041675
    SK03S010  C2004 01 24.21111 06 35 22.21 +23 08 29.3                 ED041675
    SK03S010  C2004 01 24.21525 06 35 22.12 +23 08 29.4                 ED041675
    SK03S010  C2004 01 24.21940 06 35 22.06 +23 08 29.5                 ED041675
    SK03S010  C2004 01 24.22355 06 35 21.99 +23 08 29.5                 ED041675
    SK03S010  C2004 02 23.33887 06 28 12.94 +23 16 30.7          24   R ED041568
    SK03S010  C2004 02 23.35689 06 28 12.78 +23 16 30.9          23.9 R ED041568
    SK03S010  C2004 02 24.33176 06 28 05.31 +23 16 39.3          23.8 R ED041568
    SK03S010  C2004 02 24.34075 06 28 05.19 +23 16 39.3                 ED041568

Observer details:
568 Mauna Kea.  Observers S. S. Sheppard, D. C. Jewitt, D. Donovan.
    Measurer S. S. Sheppard.  8.3-m Subaru reflector + CCD.
675 Palomar.  Observers B. Gladman, R. L. Allen, M. Cuk, C. van Laerhoven.
    Measurer B. Gladman.  5-m Hale reflector + CCD.

Orbital elements:
S/2003 S 1
Epoch 2004 July 14.0 TT = JDT 2453200.5                 MPC
M 354.35882              (2000.0)            P               Q
n   0.36118691     Peri.  174.99896     +0.98852615     +0.14168422
a   0.1286409      Node   184.35394     +0.10321780     -0.38052559
e   0.3130665      Incl.  136.39330     +0.11028211     -0.91385221
P   2.73           H   14.5           P/d   996.71
Residuals in seconds of arc
030205 568  0.3-  0.1-    030402 568  0.5+  0.2-    040124 675  0.0   0.0
030205 568  0.3-  0.0     030402 568  0.5+  0.4-    040124 675  0.2-  0.0
030206 568  0.3-  0.2+    030403 568  0.7+  0.0     040124 675  0.2+  0.0
030206 568  0.4-  0.1-    040124 675  0.2-  0.2+    040124 675  0.3+  0.1-
030223 568  0.1+  0.2+    040124 675  0.2-  0.3-    040223 568  0.2+  0.1-
030224 568  0.2+  0.2+    040124 675  0.0   0.0     040223 568  0.1+  0.0
030304 568  0.1-  0.1+    040124 675  0.0   0.3+    040224 568  0.2+  0.1-
030304 568  0.1-  0.1+    040124 675  0.1-  0.1-    040224 568  0.5-  0.1-

Ephemeris:
    S/2003 S 1                                                   q = 0.0884
Date    TT    R. A. (2000) Decl.     Delta     r_S   dR.A. ("/m)  dDecl.m1"/')
2004 02 25    06 28.00   +23 16.8    8.574    0.117   353+/0.43+  1935+/ 32.2+
2004 03 06    06 27.21   +23 17.8    8.723    0.114   143+/0.17+  1878+/ 31.3+
2004 03 16    06 27.24   +23 18.0    8.881    0.112    65-/0.08-  1811+/ 30.2+
2004 03 26    06 28.07   +23 17.6    9.043    0.109   268-/0.32-  1736+/ 28.9+
2004 04 05    06 29.68   +23 16.4    9.206    0.107   464-/0.56-  1654+/ 27.6+
2004 04 15    06 32.01   +23 14.4    9.363    0.104   653-/0.79-  1566+/ 26.1+
2004 04 25    06 34.99   +23 11.5    9.512    0.102   832-/1.01-  1474+/ 24.6+
2004 05 05    06 38.57   +23 07.7    9.649    0.099  1000-/1.21-  1378+/ 23.0+
2004 05 15    06 42.65   +23 03.0    9.769    0.097  1155-/1.40-  1278+/ 21.3+
2004 05 25    06 47.17   +22 57.2    9.872    0.095  1296-/1.56-  1174+/ 19.6+
2004 06 04    06 52.03   +22 50.3    9.954    0.093  1420-/1.71-  1065+/ 17.8+
2004 06 14    06 57.18   +22 42.3   10.015    0.092  1527-/1.84-   952+/ 15.9+
2004 06 24    07 02.52   +22 33.2   10.052    0.090  1614-/1.94-   834+/ 13.9+

Brian G. Marsden             (C) Copyright 2004 MPC           M.P.E.C. 2004-D41

Read MPEC 2004-D40 Read MPEC 2004-D42


Our Web policy. Index to the CBAT/MPC/ICQ pages.


Valid HTML 4.01!